STARLINK-4206, 52847

Orbit data source: Space-Track

STARLINK-4206, 52847 is a payload satellite owned by SpaceX/Seattle (US) in LEO that was launched on Fri, 17 Jun 2022 UTC via an FALCON 9 launch vehicle from the Air Force Eastern Test Range (AFETR). Payload-class satellites include a variety of spacecraft equipped with specific instruments for various scientific and technological missions. These include communications satellites like Starlink; space stations such as the ISS; scientific satellites like the Hubble; Earth observation satellites from companies like Planet Labs, Umbra, and HawkEye 360; GPS; miniature CubeSats for education and research; and military/defense satellites.

Loading next visibility...
Identifier
52847, 2022-062T
Orbit
LEO
Country
Flag of USUS
Related business
Manufacturer
SpaceX/Seattle
Mission
Operational Commercial Communications
Bus & Motor
STARLINK, Unknown motor
Mass
297 kg wet, ~275 kg dry
Launch date (UTC)
2022-06-17 (3 years ago)
Launch vehicle
FALCON 9
Launch site
Air Force Eastern Test Range (AFETR)
Object type
Payload
Rocket body
Debris
Shape & HBR
Box + 1 Pan, 10.1 m
Radar Cross Section
13.562 m², Large (>1 m²)

Expand to show TLE details & history
Last TLE update: 18 hours ago

TLE from 18 hours ago
0 STARLINK-4206
1 52847U 22062T   25349.32345926  .00000296  00000-0  36693-4 0  9993
2 52847  53.2200  52.8559 0001315  98.9385 261.1756 15.08838531193054
Epoch: 2025-12-15T07:45Z
TLE epoch observation values (Epoch: 2025-12-15T07:45:46.880Z)
Latitude
-0.00001°
Longitude
-147.81311°
Altitude
540.785 km
Speed
7.593 km/s
True Right ascension
03h 31m 25s
True Declination
0° 00' 00"
Sunlit
Object was in full shadow at epoch
Visualization orbit readout
Latitude
Unknown
Longitude
Unknown
Altitude
Unknown
Speed
Unknown
Apparent Right ascension
Unknown
Apparent Declination
Unknown
Sunlit
N/A
Visualization observer readout
Local Sidereal Time
00:25:03
Azimuth
Unknown
Elevation
Unknown
Doppler factor
Unknown
Orbital elements
Apogee altitude
540.902 km
Perigee altitude
539.083 km
Semi-major axis
6,918.129 km
Eccentricity
0.00013
Inclination
53.22°
RAAN
52.8559°
Arg. of periapsis
98.9385°
True anomaly
261.16071°
Mean anomaly
261.1756°
Eccentric anomaly
261.16815°
Mean motion
3.7719 °/min
Orbital period
95.44 mins
BSTAR
0.000036693
Loading maneuver chart data...
Computing Atmospheric mass density...
Loading historical data...
Loading historical data...
Loading historical data...
Loading historical data...
Loading historical data...
Loading historical data...
Loading historical data...

Documentation

Showing up to 5 results
|